Austin, MN

3:53 PM CDT on October 17, 2017 (GMT -0500)
Austin Municipal

Weather History for KAUM - May, 2013

Change the Weather History Date:

Sunday, May 5, 2013

  Actual Average Record
Temperature  
Mean Temperature 48 °F -  
Max Temperature 59 °F 62 °F 84 °F (2000)
Min Temperature 37 °F 43 °F 33 °F (2004)
Degree Days  
Heating Degree Days 17    
Moisture  
Dew Point 42 °F    
Average Humidity 84    
Maximum Humidity 93    
Minimum Humidity 72    
Precipitation  
Precipitation 0.00 in - - ()
Sea Level Pressure  
Sea Level Pressure 30.10 in    
Wind  
Wind Speed 7 mph (North)    
Max Wind Speed 12 mph    
Max Gust Speed 16 mph    
Visibility 10 miles    
Events      
Averages and records for this station are not official NWS values.
T = Trace of Precipitation, MM = Missing Value Source: NWS Daily Summary

Daily Weather History Graph

Daily Weather History Graph

Search for Another Location

Airport or City:

Trip Planner

Search our weather history database for the weather conditions in past years. The results will help you decide how hot, cold, wet, or windy it might be!

Date:

Astronomy

May. 05, 2013 Rise Set
Actual Time 5:58 AM CDT 8:19 PM CDT
Civil Twilight 5:26 AM CDT 8:51 PM CDT
Nautical Twilight 4:46 AM CDT 9:31 PM CDT
Astronomical Twilight 4:02 AM CDT 10:15 PM CDT
Moon 3:37 AM CDT (5/5) 4:12 PM CDT (5/5)
Length of Visible Light 15h 24m
Length of Day
14h 20m
Waning Crescent, 18% of the Moon is Illuminated
May 5
Waning Crescent
May 9
New
May 17
First Quarter
May 24
Full
May 31
Last Quarter

Hourly Weather History & Observations

Time (CDT) Temp. Windchill Dew Point Humidity Pressure Visibility Wind Dir Wind Speed Gust Speed Precip Events Conditions
12:16 AM 39.2 °F 34.2 °F 35.6 °F 87% 30.11 in 10.0 mi North 6.9 mph - N/A   Mostly Cloudy
12:36 AM 39.2 °F 35.9 °F 35.6 °F 87% 30.11 in 10.0 mi North 4.6 mph - N/A   Scattered Clouds
12:55 AM 39.2 °F 35.9 °F 35.6 °F 87% 30.11 in 10.0 mi North 4.6 mph - N/A   Clear
1:16 AM 39.2 °F 34.2 °F 35.6 °F 87% 30.10 in 10.0 mi North 6.9 mph - N/A   Clear
1:36 AM 39.2 °F 34.2 °F 35.6 °F 87% 30.10 in 10.0 mi North 6.9 mph - N/A   Clear
1:55 AM 39.2 °F 35.0 °F 35.6 °F 87% 30.09 in 10.0 mi North 5.8 mph - N/A   Clear
2:16 AM 39.2 °F 35.0 °F 35.6 °F 87% 30.09 in 10.0 mi North 5.8 mph - N/A   Scattered Clouds
2:35 AM 39.2 °F 33.6 °F 35.6 °F 87% 30.09 in 10.0 mi North 8.1 mph - N/A   Mostly Cloudy
2:56 AM 39.2 °F 33.6 °F 35.6 °F 87% 30.09 in 10.0 mi North 8.1 mph - N/A   Overcast
3:15 AM 37.4 °F 32.8 °F 35.6 °F 93% 30.09 in 10.0 mi North 5.8 mph - N/A   Scattered Clouds
3:35 AM 37.4 °F 32.1 °F 35.6 °F 93% 30.09 in 10.0 mi North 6.9 mph - N/A   Scattered Clouds
3:56 AM 37.4 °F 32.8 °F 35.6 °F 93% 30.09 in 10.0 mi NNE 5.8 mph - N/A   Scattered Clouds
4:15 AM 37.4 °F 33.8 °F 35.6 °F 93% 30.09 in 10.0 mi North 4.6 mph - N/A   Clear
4:35 AM 37.4 °F 32.1 °F 35.6 °F 93% 30.10 in 10.0 mi North 6.9 mph - N/A   Clear
4:56 AM 37.4 °F 32.1 °F 35.6 °F 93% 30.10 in 10.0 mi NNW 6.9 mph - N/A   Clear
5:15 AM 37.4 °F 32.8 °F 35.6 °F 93% 30.10 in 10.0 mi North 5.8 mph - N/A   Clear
5:35 AM 37.4 °F 32.8 °F 35.6 °F 93% 30.10 in 10.0 mi North 5.8 mph - N/A   Clear
5:56 AM 37.4 °F 31.4 °F 35.6 °F 93% 30.11 in 10.0 mi NNW 8.1 mph - N/A   Scattered Clouds
6:15 AM 37.4 °F 32.1 °F 35.6 °F 93% 30.11 in 7.0 mi North 6.9 mph - N/A   Scattered Clouds
6:35 AM 37.4 °F 32.1 °F 35.6 °F 93% 30.11 in 5.0 mi North 6.9 mph - N/A   Scattered Clouds
6:56 AM 37.4 °F 32.1 °F 35.6 °F 93% 30.11 in 4.0 mi North 6.9 mph - N/A   Overcast
7:16 AM 37.4 °F 32.1 °F 35.6 °F 93% 30.12 in 5.0 mi North 6.9 mph - N/A   Overcast
7:36 AM 37.4 °F 32.8 °F 35.6 °F 93% 30.12 in 7.0 mi North 5.8 mph - N/A   Scattered Clouds
7:55 AM 39.2 °F 35.9 °F 37.4 °F 93% 30.12 in 10.0 mi North 4.6 mph - N/A   Scattered Clouds
8:15 AM 39.2 °F 33.6 °F 35.6 °F 87% 30.12 in 10.0 mi North 8.1 mph - N/A   Scattered Clouds
8:36 AM 41.0 °F 36.4 °F 37.4 °F 87% 30.12 in 10.0 mi North 6.9 mph - N/A   Clear
8:55 AM 42.8 °F 38.6 °F 37.4 °F 81% 30.13 in 10.0 mi North 6.9 mph - N/A   Clear
9:16 AM 42.8 °F 38.0 °F 37.4 °F 81% 30.12 in 10.0 mi North 8.1 mph - N/A   Clear
9:36 AM 42.8 °F 37.5 °F 37.4 °F 81% 30.13 in 10.0 mi North 9.2 mph - N/A   Clear
9:55 AM 42.8 °F 38.0 °F 37.4 °F 81% 30.13 in 10.0 mi North 8.1 mph - N/A   Clear
10:16 AM 42.8 °F 37.5 °F 37.4 °F 81% 30.13 in 10.0 mi North 9.2 mph - N/A   Scattered Clouds
10:36 AM 44.6 °F 40.7 °F 39.2 °F 81% 30.13 in 10.0 mi North 6.9 mph - N/A   Scattered Clouds
11:00 AM 44.6 °F 39.7 °F 39.2 °F 81% 30.12 in 10.0 mi North 9.2 mph - N/A   Scattered Clouds
11:16 AM 44.6 °F 42.2 °F 39.2 °F 81% 30.13 in 10.0 mi NNE 4.6 mph - N/A   Scattered Clouds
11:36 AM 44.6 °F 41.4 °F 39.2 °F 81% 30.13 in 10.0 mi North 5.8 mph - N/A   Clear
11:55 AM 46.4 °F 41.9 °F 41.0 °F 81% 30.13 in 10.0 mi North 9.2 mph - N/A   Clear
12:16 PM 48.2 °F - 42.8 °F 82% 30.12 in 10.0 mi North 8.1 mph - N/A   Clear
12:36 PM 48.2 °F - 42.8 °F 82% 30.12 in 10.0 mi NNW 8.1 mph - N/A   Clear
1:16 PM 50.0 °F - 44.6 °F 82% 30.11 in 10.0 mi North 8.1 mph - N/A   Clear
1:36 PM 51.8 °F - 44.6 °F 76% 30.11 in 10.0 mi NNW 6.9 mph - N/A   Clear
1:55 PM 51.8 °F - 44.6 °F 76% 30.11 in 10.0 mi North 5.8 mph - N/A   Clear
2:16 PM 51.8 °F - 44.6 °F 76% 30.10 in 10.0 mi North 6.9 mph - N/A   Clear
2:35 PM 53.6 °F - 46.4 °F 77% 30.10 in 10.0 mi North 9.2 mph - N/A   Clear
2:54 PM 53.6 °F - 46.4 °F 77% 30.09 in 10.0 mi North 9.2 mph - N/A   Clear
3:16 PM 53.6 °F - 46.4 °F 77% 30.09 in 10.0 mi North 6.9 mph - N/A   Unknown
3:35 PM 55.4 °F - 46.4 °F 72% 30.08 in 10.0 mi North 9.2 mph - N/A   Unknown
3:56 PM 55.4 °F - 48.2 °F 77% 30.08 in 10.0 mi North 9.2 mph - N/A   Clear
4:16 PM 55.4 °F - 48.2 °F 77% 30.08 in 10.0 mi North 6.9 mph - N/A   Clear
4:36 PM 57.2 °F - 48.2 °F 72% 30.07 in 10.0 mi NNW 8.1 mph - N/A   Clear
4:55 PM 57.2 °F - 50.0 °F 77% 30.07 in 10.0 mi North 9.2 mph - N/A   Clear
5:16 PM 59.0 °F - 50.0 °F 72% 30.06 in 10.0 mi North 8.1 mph - N/A   Clear
5:35 PM 59.0 °F - 50.0 °F 72% 30.06 in 10.0 mi North 6.9 mph - N/A   Clear
5:55 PM 59.0 °F - 50.0 °F 72% 30.07 in 10.0 mi NNW 11.5 mph 16.1 mph N/A   Clear
6:16 PM 59.0 °F - 51.8 °F 77% 30.07 in 10.0 mi North 5.8 mph - N/A   Clear
6:36 PM 59.0 °F - 50.0 °F 72% 30.07 in 10.0 mi North 8.1 mph - N/A   Clear
7:16 PM 59.0 °F - 51.8 °F 77% 30.07 in 10.0 mi North 5.8 mph - N/A   Clear
7:36 PM 59.0 °F - 51.8 °F 77% 30.08 in 10.0 mi NNW 6.9 mph - N/A   Clear
7:56 PM 57.2 °F - 51.8 °F 82% 30.07 in 10.0 mi NNW 5.8 mph - N/A   Clear
8:15 PM 57.2 °F - 51.8 °F 82% 30.07 in 10.0 mi NNW 4.6 mph - N/A   Clear
8:36 PM 57.2 °F - 50.0 °F 77% 30.07 in 10.0 mi NNW 3.5 mph - N/A   Clear
8:55 PM 55.4 °F - 50.0 °F 82% 30.08 in 10.0 mi NNW 3.5 mph - N/A   Clear
9:36 PM 53.6 °F - 48.2 °F 82% 30.08 in 10.0 mi NNW 4.6 mph - N/A   Clear
9:55 PM 53.6 °F - 48.2 °F 82% 30.08 in 10.0 mi NNW 5.8 mph - N/A   Clear
10:15 PM 53.6 °F - 48.2 °F 82% 30.08 in 10.0 mi NNW 5.8 mph - N/A   Clear
10:36 PM 51.8 °F - 48.2 °F 88% 30.08 in 10.0 mi North 3.5 mph - N/A   Clear
10:55 PM 51.8 °F - 48.2 °F 88% 30.08 in 7.0 mi NNW 4.6 mph - N/A   Clear
11:16 PM 51.8 °F - 48.2 °F 88% 30.08 in 7.0 mi NNW 4.6 mph - N/A   Clear
11:36 PM 50.0 °F - 46.4 °F 87% 30.07 in 7.0 mi NW 4.6 mph - N/A   Clear
11:55 PM 50.0 °F - 46.4 °F 87% 30.08 in 7.0 mi NNW 3.5 mph - N/A   Clear